When you browse on this site, cookies collect data to enhance your experience and personalize the content and advertising you see.
Visit our Privacy Policy to learn more. By continuing to use the site, you agree to this use of cookies and data.
  • In Österreich
  • Länderverzeichnis
  • Für 7 Tage
  • Wassertemperatur
  • Satellitenkarten
  • Wetterkarte
  • News
  • Widgets
  • user-avatar
    Anmelden

    Stündliche Wetter Setubal

    Heute, 21 März, Donnerstag

    Zeit Temperatur Niederschläge Wind Luftdruck Luftfeuchtigkeit
    00:00 +10°C° 0 mm 3 m/S 763 mmHg 56%
    01:00 +9°C° 0 mm 3 m/S 763 mmHg 57%
    02:00 +9°C° 0 mm 3 m/S 762 mmHg 57%
    03:00 +8°C° 0 mm 3 m/S 762 mmHg 59%
    04:00 +8°C° 0 mm 3 m/S 763 mmHg 62%
    05:00 +8°C° 0 mm 2 m/S 762 mmHg 61%
    06:00 +9°C° 0 mm 3 m/S 763 mmHg 58%
    07:00 +11°C° 0 mm 3 m/S 763 mmHg 55%
    08:00 +12°C° 0 mm 3 m/S 763 mmHg 52%
    09:00 +14°C° 0 mm 3 m/S 763 mmHg 47%
    10:00 +18°C° 0 mm 2 m/S 763 mmHg 42%
    11:00 +20°C° 0 mm 2 m/S 763 mmHg 36%
    12:00 +20°C° 0 mm 2 m/S 763 mmHg 35%
    13:00 +21°C° 0 mm 2 m/S 762 mmHg 33%
    14:00 +23°C° 0 mm 2 m/S 762 mmHg 32%
    15:00 +21°C° 0 mm 2 m/S 762 mmHg 35%
    16:00 +20°C° 0 mm 2 m/S 762 mmHg 39%
    17:00 +19°C° 0 mm 2 m/S 762 mmHg 42%
    18:00 +17°C° 0 mm 2 m/S 762 mmHg 45%
    19:00 +15°C° 0 mm 2 m/S 762 mmHg 47%
    20:00 +14°C° 0 mm 2 m/S 763 mmHg 49%
    21:00 +13°C° 0 mm 2 m/S 763 mmHg 49%
    22:00 +12°C° 0 mm 2 m/S 763 mmHg 49%
    23:00 +11°C° 0 mm 3 m/S 763 mmHg 49%

    Morgen, 22 März, Freitag

    Zeit Temperatur Niederschläge Wind Luftdruck Luftfeuchtigkeit
    00:00 +10°C° 0 mm 3 m/S 762 mmHg 50%
    01:00 +9°C° 0 mm 2 m/S 762 mmHg 51%
    02:00 +9°C° 0 mm 2 m/S 762 mmHg 52%
    03:00 +9°C° 0 mm 3 m/S 762 mmHg 53%
    04:00 +8°C° 0 mm 3 m/S 762 mmHg 54%
    05:00 +8°C° 0 mm 3 m/S 762 mmHg 55%
    06:00 +9°C° 0 mm 3 m/S 763 mmHg 51%
    07:00 +11°C° 0 mm 4 m/S 763 mmHg 47%
    08:00 +12°C° 0 mm 4 m/S 763 mmHg 42%
    09:00 +15°C° 0 mm 5 m/S 763 mmHg 37%
    10:00 +17°C° 0 mm 5 m/S 763 mmHg 32%
    11:00 +20°C° 0 mm 5 m/S 763 mmHg 26%
    12:00 +21°C° 0 mm 5 m/S 763 mmHg 27%
    13:00 +21°C° 0 mm 5 m/S 762 mmHg 27%
    14:00 +21°C° 0 mm 5 m/S 762 mmHg 28%
    15:00 +21°C° 0 mm 4 m/S 761 mmHg 32%
    16:00 +20°C° 0 mm 4 m/S 761 mmHg 36%
    17:00 +19°C° 0 mm 3 m/S 761 mmHg 40%
    18:00 +18°C° 0 mm 3 m/S 761 mmHg 44%
    19:00 +16°C° 0 mm 3 m/S 762 mmHg 48%
    20:00 +14°C° 0 mm 3 m/S 762 mmHg 52%
    21:00 +13°C° 0 mm 3 m/S 762 mmHg 53%
    22:00 +12°C° 0 mm 4 m/S 762 mmHg 54%
    23:00 +12°C° 0 mm 4 m/S 762 mmHg 55%

    übermorgen, 23 März, Samstag

    Zeit Temperatur Niederschläge Wind Luftdruck Luftfeuchtigkeit
    00:00 +11°C° 0 mm 4 m/S 762 mmHg 55%
    01:00 +11°C° 0 mm 4 m/S 761 mmHg 55%
    02:00 +10°C° 0 mm 4 m/S 761 mmHg 56%
    03:00 +10°C° 0 mm 4 m/S 761 mmHg 58%
    04:00 +8°C° 0 mm 4 m/S 760 mmHg 60%
    05:00 +8°C° 0 mm 4 m/S 760 mmHg 62%
    06:00 +11°C° 0 mm 4 m/S 760 mmHg 59%
    07:00 +12°C° 0 mm 4 m/S 760 mmHg 56%
    08:00 +14°C° 0 mm 4 m/S 760 mmHg 53%
    09:00 +17°C° 0 mm 4 m/S 760 mmHg 47%
    10:00 +20°C° 0 mm 4 m/S 760 mmHg 41%
    11:00 +22°C° 0 mm 5 m/S 760 mmHg 36%
    12:00 +22°C° 0 mm 4 m/S 759 mmHg 35%
    13:00 +23°C° 0 mm 4 m/S 759 mmHg 34%
    14:00 +25°C° 0 mm 4 m/S 758 mmHg 33%
    15:00 +23°C° 0 mm 4 m/S 758 mmHg 34%
    16:00 +22°C° 0 mm 4 m/S 758 mmHg 36%
    17:00 +22°C° 0 mm 4 m/S 758 mmHg 38%
    18:00 +20°C° 0 mm 4 m/S 758 mmHg 41%
    19:00 +19°C° 0 mm 4 m/S 758 mmHg 45%
    20:00 +18°C° 0 mm 4 m/S 759 mmHg 49%
    21:00 +17°C° 0 mm 3 m/S 759 mmHg 51%
    22:00 +17°C° 0 mm 3 m/S 759 mmHg 53%
    23:00 +16°C° 0 mm 3 m/S 758 mmHg 56%

    24 März, Sonntag

    Zeit Temperatur Niederschläge Wind Luftdruck Luftfeuchtigkeit
    00:00 +14°C° 0 mm 3 m/S 758 mmHg 59%
    01:00 +13°C° 0 mm 3 m/S 758 mmHg 62%
    02:00 +12°C° 0 mm 3 m/S 758 mmHg 65%
    03:00 +12°C° 0 mm 3 m/S 758 mmHg 64%
    04:00 +11°C° 0 mm 4 m/S 758 mmHg 64%
    05:00 +11°C° 0 mm 4 m/S 758 mmHg 64%
    06:00 +13°C° 0 mm 4 m/S 758 mmHg 60%
    07:00 +14°C° 0 mm 5 m/S 758 mmHg 56%
    08:00 +16°C° 0 mm 5 m/S 759 mmHg 52%
    09:00 +19°C° 0 mm 5 m/S 759 mmHg 47%
    10:00 +21°C° 0 mm 4 m/S 759 mmHg 41%
    11:00 +23°C° 0 mm 4 m/S 759 mmHg 35%
    12:00 +23°C° 0 mm 4 m/S 758 mmHg 34%
    13:00 +25°C° 0 mm 4 m/S 758 mmHg 33%
    14:00 +25°C° 0 mm 4 m/S 758 mmHg 32%
    15:00 +25°C° 0 mm 4 m/S 758 mmHg 35%
    16:00 +24°C° 0 mm 3 m/S 758 mmHg 37%
    17:00 +22°C° 0 mm 3 m/S 757 mmHg 40%
    18:00 +20°C° 0 mm 3 m/S 758 mmHg 46%
    19:00 +19°C° 0 mm 4 m/S 758 mmHg 53%
    20:00 +18°C° 0 mm 4 m/S 758 mmHg 59%
    21:00 +17°C° 0 mm 4 m/S 758 mmHg 63%
    22:00 +16°C° 0 mm 3 m/S 758 mmHg 68%
    23:00 +15°C° 0 mm 2 m/S 758 mmHg 72%

    25 März, Montag

    Zeit Temperatur Niederschläge Wind Luftdruck Luftfeuchtigkeit
    00:00 +15°C° 0 mm 2 m/S 758 mmHg 73%
    01:00 +15°C° 0 mm 2 m/S 757 mmHg 75%
    02:00 +15°C° 0 mm 2 m/S 757 mmHg 76%
    03:00 +13°C° 0 mm 3 m/S 757 mmHg 79%
    04:00 +13°C° 0 mm 3 m/S 757 mmHg 83%
    05:00 +12°C° 0 mm 3 m/S 757 mmHg 86%
    06:00 +13°C° 0 mm 4 m/S 757 mmHg 77%
    07:00 +15°C° 0 mm 4 m/S 757 mmHg 68%
    08:00 +17°C° 0 mm 4 m/S 757 mmHg 59%
    09:00 +19°C° 0 mm 4 m/S 757 mmHg 52%
    10:00 +21°C° 0 mm 4 m/S 757 mmHg 46%
    11:00 +23°C° 0 mm 4 m/S 757 mmHg 39%
    12:00 +23°C° 0 mm 4 m/S 757 mmHg 39%
    13:00 +25°C° 0 mm 3 m/S 756 mmHg 38%
    14:00 +26°C° 0 mm 3 m/S 756 mmHg 37%
    15:00 +25°C° 0.3 mm 2 m/S 756 mmHg 43%
    16:00 +24°C° 0.3 mm 2 m/S 755 mmHg 49%
    17:00 +22°C° 0.3 mm 1 m/S 755 mmHg 55%
    18:00 +20°C° 0.2 mm 2 m/S 756 mmHg 58%
    19:00 +19°C° 0.2 mm 2 m/S 756 mmHg 62%
    20:00 +17°C° 0.2 mm 2 m/S 757 mmHg 65%
    21:00 +17°C° 0 mm 2 m/S 756 mmHg 66%
    22:00 +16°C° 0 mm 2 m/S 756 mmHg 67%
    23:00 +16°C° 0 mm 2 m/S 756 mmHg 68%

    26 März, Dienstag

    Zeit Temperatur Niederschläge Wind Luftdruck Luftfeuchtigkeit
    00:00 +15°C° 0 mm 2 m/S 756 mmHg 68%
    01:00 +15°C° 0 mm 2 m/S 756 mmHg 68%
    02:00 +14°C° 0 mm 3 m/S 756 mmHg 68%
    03:00 +13°C° 0 mm 3 m/S 756 mmHg 68%
    04:00 +13°C° 0 mm 3 m/S 756 mmHg 69%
    05:00 +13°C° 0 mm 3 m/S 756 mmHg 69%
    06:00 +14°C° 0 mm 3 m/S 756 mmHg 65%
    07:00 +16°C° 0 mm 3 m/S 756 mmHg 60%
    08:00 +17°C° 0 mm 3 m/S 756 mmHg 56%
    09:00 +19°C° 0 mm 3 m/S 756 mmHg 50%
    10:00 +21°C° 0 mm 3 m/S 756 mmHg 45%
    11:00 +24°C° 0 mm 3 m/S 756 mmHg 39%
    12:00 +25°C° 0 mm 3 m/S 756 mmHg 37%
    13:00 +26°C° 0 mm 4 m/S 755 mmHg 35%
    14:00 +27°C° 0 mm 4 m/S 754 mmHg 33%
    15:00 +26°C° 0 mm 4 m/S 754 mmHg 36%
    16:00 +25°C° 0 mm 4 m/S 754 mmHg 40%
    17:00 +25°C° 0 mm 4 m/S 754 mmHg 43%
    18:00 +22°C° 0.2 mm 4 m/S 754 mmHg 49%
    19:00 +20°C° 0.2 mm 4 m/S 755 mmHg 55%
    20:00 +18°C° 0.2 mm 4 m/S 755 mmHg 60%
    21:00 +18°C° 0.2 mm 4 m/S 755 mmHg 62%
    22:00 +17°C° 0.2 mm 3 m/S 755 mmHg 64%
    23:00 +16°C° 0.2 mm 3 m/S 754 mmHg 66%
    Mehr zeigen